Tri-Cities Airport Airport (TRI)

 

Airport Diagram
Current Weather/Forecast (VFR Conditions)
METAR KTRI 220353Z 00000KT 10SM OVC065 09/06 A3013 RMK AO2 SLP192 T00890056
TAF KTRI 212327Z 2200/2224 00000KT P6SM BKN100 FM221500 24004KT P6SM BKN030 FM221700 25005KT 5SM SHRA BR OVC015

All Charts
General
Chart Name Download
AIRPORT DIAGRAM
TAKEOFF MINIMUMS
ALTERNATE MINIMUMS

Departures
Chart Name Download
KINGS ONE
KINGS ONE, CONT.1

Approaches
Chart Name Download
ILS OR LOC RWY 05
ILS OR LOC RWY 23
ILS RWY 23 (SA CAT I)
ILS RWY 23 (CAT II)
RNAV (GPS) RWY 05
RNAV (GPS) RWY 09
RNAV (GPS) RWY 23
RNAV (GPS) RWY 27


Inbound Traffic (Arrivals)

No inbound traffic.


Outbound Traffic (Departures)

No outbound traffic.